Regional Weather Roundup
Issued by NWS

Home | Current Version | Previous Version | Text Only | Print | Product List | Glossary Off
Versions: 1 2 3 4 5 6 7 8 9 10 11 12 13 14 15 16 17 18 19 20 21 22 23 24 25 26 27 28 29 30 31 32 33 34 35 36 37 38 39 40 41 42 43 44 45 46 47 48 49 50

000
ASUS43 KMPX 030401
RWRMN
WEATHER ROUNDUP FOR MINNESOTA
NATIONAL WEATHER SERVICE TWIN CITIES/CHANHASSEN MN
1000 PM CST MON MAR 02 2015


NOTE: "FAIR" INDICATES FEW OR NO CLOUDS BELOW 12,000 FEET WITH NO
SIGNIFICANT WEATHER AND/OR OBSTRUCTIONS TO VISIBILITY. N/A MEANS
CURRENT SKY AND/OR WEATHER CONDITIONS ARE NOT AVAILABLE.

MNZ060>063-068>070-030500-
   Twin Cities Metro

CITY           SKY/WX    TMP DP  RH WIND       PRES   REMARKS
TWIN CITIES    CLOUDY    21  11  65 SE10      30.12F WCI  10
ST PAUL        CLOUDY    21  11  65 SE9       30.14F WCI  11
CRYSTAL        CLOUDY    22  12  65 SE9       30.10F WCI  12
BLAINE         CLOUDY    23  12  63 SE9       30.11S WCI  13
LAKEVILLE      FAIR      19  12  73 SE8       30.11F WCI   9
EDEN PRAIRIE   CLOUDY    21  12  68 S9        30.10F WCI  11
SOUTH ST PAUL  CLOUDY    22  12  64 SE7       30.13F WCI  14
LAKE ELMO      CLOUDY    23  12  63 S9        30.13F WCI  13
$$
MNZ001>005-007-008-013>017-022>024-027-028-030500-
   Northwest Minnesota

CITY           SKY/WX    TMP DP  RH WIND       PRES   REMARKS
BEMIDJI        CLOUDY    23  13  64 S15G21    29.87F WCI  10
HALLOCK        FAIR      21  18  86 S24       29.77F WCI   4
ROSEAU         FAIR      25  16  68 S21       29.78F WCI  10
WARROAD        MOCLDY    27  16  63 S13G20    29.79F WCI  16
THIEF RVR FALL FAIR      25  18  74 S16       29.81F WCI  12
CROOKSTON      FAIR      25  18  74 S23G29    29.83F WCI  10
FOSSTON        CLOUDY    23  16  74 S21G28    29.82F WCI   8
DETROIT LAKES  FAIR      27  19  74 S18G25    29.88F WCI  13
MOORHEAD       FAIR      27  19  74 S24G33    29.85F WCI  12
PARK RAPIDS    CLOUDY    23  13  65 S21G26    29.91F WCI   8
MAHNOMEN       CLOUDY    25  16  70 S22G30    29.84F WCI  10
$$
MNZ006-009>011-018-025>026-030500-
   North Central Minnesota

CITY           SKY/WX    TMP DP  RH WIND       PRES   REMARKS
BAUDETTE       CLOUDY    24  10  55 S14G24    29.81F WCI  12
FLAG ISLAND    CLOUDY    19  12  73 S16       29.78F WCI   5
INTL FALLS     CLOUDY    23   7  50 S12G23    29.87F WCI  12
WASKISH        CLOUDY    25  12  58 S10G22    29.85F WCI  15
BIG FORK       CLOUDY    23  10  58 S14G20    29.92F WCI  11
LONGVILLE      CLOUDY    21  10  63 S14G22    29.95F WCI   8
GRAND RAPIDS   CLOUDY    21   9  58 S18G24    29.94F WCI   6
CRANE LAKE     CLOUDY    19   3  49 S9        29.96F WCI   9
ORR            CLOUDY    21   3  45 S13G21    29.92F WCI   9
COOK           CLOUDY    21   7  53 S10G16    29.97F WCI  10
WALKER         CLOUDY    24  11  57 S15G24    29.91F WCI  11
$$
MNZ012-019>021-037-030500-
   Northeast Minnesota

CITY           SKY/WX    TMP DP  RH WIND       PRES   REMARKS
DULUTH         MOCLDY    20   5  52 S12       30.01F WCI   8
ELY            CLOUDY    19   3  49 S12       29.98F WCI   7
HIBBING        CLOUDY    21   5  50 S9        29.98F WCI  11
EVELETH        FAIR      21   7  53 S8        30.00F WCI  12
DULUTH HARBOR  CLOUDY    23   7  50 S10       30.09F WCI  12
TWO HARBORS    CLOUDY    25   9  50 S6        30.04F WCI  18
SILVER BAY     CLOUDY    23   7  50 S8        30.03F WCI  14
GRAND MARAIS     N/A     28  14  55 SW23      30.08F WCI  14
G MARAIS ARPRT FAIR      16   7  67 S8        30.00F WCI   5
$$
MNZ029>031-032-039>041-046>048-054>057-064-030500-
   West Central Minnesota

CITY           SKY/WX    TMP DP  RH WIND       PRES   REMARKS
FERGUS FALLS   CLOUDY    25  16  68 S23G29    29.94F WCI  10
WHEATON        CLOUDY    25  19  80 SE23      29.91F WCI  10
MORRIS         CLOUDY    25  19  80 SE23G29   29.93F WCI  10
ALEXANDRIA     CLOUDY    22  16  78 S15       29.96F WCI   9
ELBOW LAKE     CLOUDY    23  19  83 S22G29    29.91F WCI   8
WADENA         CLOUDY    21  14  73 S14G20    29.93F WCI   8
GLENWOOD       MOCLDY    23  18  80 S20       29.97F WCI   8
APPLETON       MOCLDY    27  19  74 S15G21    29.95F WCI  15
BENSON         CLOUDY    25  18  74 S16G23    29.97F WCI  12
ORTONVILLE     CLOUDY    27  19  74 SE13G20   29.92F WCI  16
MADISON        CLOUDY    27  23  86 S20       29.95F WCI  13
WILLMAR        CLOUDY    25  18  74 SE16G22   30.01F WCI  12
$$
MNZ033>034-036-042>043-049>051-058-059-030500-
   Central Minnesota

CITY           SKY/WX    TMP DP  RH WIND       PRES   REMARKS
ST CLOUD       CLOUDY    22  11  62 SE10      30.05F WCI  11
SAUK CENTRE    CLOUDY    22  15  75 SE15      29.99F WCI   9
PAYNESVILLE    CLOUDY    20  14  78 E14       30.02F WCI   7
AITKIN         CLOUDY    25   9  50 S12       29.99F WCI  14
PINE RIVER     CLOUDY    21  12  68 S16G23    29.98F WCI   7
BRAINERD       CLOUDY    21  10  62 S16       29.99F WCI   7
STAPLES        CLOUDY    21  12  68 S10G20    29.96F WCI  10
LITTLE FALLS   MOCLDY    23  12  63 SE10      30.02F WCI  12
LITCHFIELD     CLOUDY    23  16  74 SE10      30.04F WCI  12
BUFFALO        CLOUDY    22  13  67 SE9       30.09F WCI  12
MAPLE LAKE     CLOUDY    23  16  74 SE9       30.07F WCI  13
$$
MNZ037-044-045-052-053-030500-
   East Central Minnesota

CITY           SKY/WX    TMP DP  RH WIND       PRES   REMARKS
PRINCETON      CLOUDY    23  12  63 SE12      30.06F WCI  12
MORA           CLOUDY    21  10  63 S8        30.09F WCI  12
CAMBRIDGE      CLOUDY    23  10  58 SE12      30.07F WCI  12
RUSH CITY      CLOUDY    21   8  58 S8        30.09F WCI  11
MOOSE LAKE     CLOUDY    21   5  49 S8        30.03F WCI  12
HINCKLEY       CLOUDY    23  10  58 S10       30.08F WCI  12
CLOQUET        CLOUDY    21   3  45 S8        30.03F WCI  12
MCGREGOR       CLOUDY    23  10  58 S14       30.01F WCI  11
$$
MNZ071>073-080-081-089-090-097-098-030500-
   Southwest Minnesota

CITY           SKY/WX    TMP DP  RH WIND       PRES   REMARKS
MONTEVIDEO     LGT SNOW  25  21  86 S16G22    29.99F WCI  12
GRANITE FALLS  LGT SNOW  25  22  89 SE17      30.00F WCI  11
CANBY          LGT SNOW  26  24  90 SE13      29.96F WCI  15
MARSHALL       CLOUDY    25  19  80 SE15      29.98F WCI  12
REDWOOD FALLS  CLOUDY    24  20  84 SE13      30.02F WCI  12
OLIVIA         LGT SNOW  23  19  86 S13       30.02F WCI  11
PIPESTONE      MOCLDY    27  19  74 S18       29.91F WCI  13
WINDOM         CLOUDY    25  19  80 SE13G18   29.99F WCI  13
WORTHINGTON    CLOUDY    25  18  74 S15G24    29.98F WCI  12
JACKSON        CLOUDY    27  21  80 SE13      30.00F WCI  16
TRACY          CLOUDY    26  21  80 S12       29.97F WCI  16
SLAYTON        CLOUDY    25  19  78 SE16      29.95F WCI  12
$$
MNZ065>067-074>077-082>085-091>093-030500-
   South Central Minnesota

CITY           SKY/WX    TMP DP  RH WIND       PRES   REMARKS
MANKATO        CLOUDY    21  12  68 SE13      30.07F WCI   9
NEW ULM        CLOUDY    21  16  79 SE9       30.06F WCI  11
ST JAMES       CLOUDY    25  19  80 SE14      30.05F WCI  13
FAIRMONT       CLOUDY    21  16  79 SE10      30.03F WCI  10
GLENCOE        CLOUDY    23  17  79 SE9       30.07F WCI  13
FARIBAULT      CLOUDY    21  12  68 SE9       30.10F WCI  11
OWATONNA       CLOUDY    21  14  73 SE15G21   30.08F WCI   8
WASECA         CLOUDY    21  14  73 SE14      30.10F WCI   8
ALBERT LEA     CLOUDY    21  12  68 SE10      30.08F WCI  10
$$
MNZ078>079-086>088-094>096-030500-
   Southeast Minnesota

CITY           SKY/WX    TMP DP  RH WIND       PRES   REMARKS
ROCHESTER      CLOUDY    20  11  68 SE13      30.11F WCI   7
RED WING       MOCLDY    23  10  58 S6        30.15F WCI  16
STANTON        FAIR      22  13  66 S9        30.11F WCI  12
DODGE CENTER   MOCLDY    19  14  79 S16       30.09F WCI   5
WINONA         MOCLDY    28  18  64 S5        30.18F WCI  23
AUSTIN         CLOUDY    19  12  73 SE7       30.10F WCI  10
PRESTON        CLOUDY    19  11  70 S8        30.13F WCI   9
$$
ABBREVIATIONS USED IN REMARKS
   TC - TEMPERATURES IN CELSIUS
  WCI - WIND CHILL INDEX
   HX - HEAT INDEX
  VSB - VISIBILITY
$$


USA.gov is the U.S. government's official web portal to all federal, state and local government web resources and services.